Weather Roundup
Issued by NWS Corpus Christi, TX

Home | Current Version | Previous Version | Text Only | Print | Product List | Glossary On
Versions: 1 2 3 4 5 6 7 8 9 10 11 12 13 14 15 16 17 18 19 20 21 22 23 24 25 26 27 28 29 30 31 32 33 34 35 36 37 38 39 40 41 42 43 44 45 46 47 48 49 50
000
ASUS44 KCRP 281110
HRRCRP

SOUTH TEXAS REGIONAL WEATHER ROUNDUP
NATIONAL WEATHER SERVICE CORPUS CHRISTI TX
600 AM CDT TUE MAR 28 2017


TXZ229>244-281200-
...CORPUS CHRISTI AREA OBSERVATIONS...

CITY           SKY/WX    TMP DP  RH WIND       PRES   REMARKS
CORPUS CHRISTI CLOUDY    73  72  96 SE16      29.76S
NAS CORPUS CHR MOCLDY    73  72  96 SE17G25   29.76
ROCKPORT       CLOUDY    74  71  91 SE14      29.77F
KINGSVILLE NAS CLOUDY    74  73  97 SE12      29.74S
ALICE          CLOUDY    73  70  90 S16       29.74S
ORANGE GROVE   CLOUDY    74  72  93 S8        29.76S
FALFURRIAS     CLOUDY    73  71  91 SE10      29.74R
$$

...VICTORIA AREA OBSERVATIONS...

CITY           SKY/WX    TMP DP  RH WIND       PRES   REMARKS
VICTORIA       CLOUDY    74  71  91 SE9       29.81R
BEEVILLE       CLOUDY    74  74 100 S12       29.77S
PLEASANTON     CLOUDY    71  68  92 E6        29.78F
SAN ANTONIO    CLOUDY    70  67  90 SE10      29.80F
$$

...LAREDO AREA OBSERVATIONS...

CITY           SKY/WX    TMP DP  RH WIND       PRES   REMARKS
LAREDO         CLOUDY    75  68  78 SE10      29.73S
COTULLA        CLOUDY    72  67  84 E10       29.73F
DEL RIO        CLOUDY    72  68  87 SE13      29.72R
MCALLEN        CLOUDY    76  71  85 SE12      29.74S
HEBBRONVILLE   MOCLDY    71  68  92 S10       29.75S FOG
$$

...OTHER TEXAS OBSERVATIONS...

CITY           SKY/WX    TMP DP  RH WIND       PRES   REMARKS
BROWNSVILLE    PTCLDY    73  72  94 SE12      29.77S
HOUSTON        MOCLDY    69  68  96 SE5       29.86S FOG
COL. STATION   CLOUDY    70  69  97 SE7       29.85R FOG
AUSTIN         CLOUDY    71  68  90 E9        29.81S
WACO           CLOUDY    69  65  86 S15G22    29.82F
FORT WORTH     CLOUDY    63  56  78 NE8       29.85S
WICHITA FALLS  CLOUDY    55  51  86 E14       29.87R
LUBBOCK        CLOUDY    54  47  77 E15       29.78F
EL PASO        MOCLDY    66  26  22 W17G26    29.75S
$$

...MARINE OBSERVATIONS...

STATION/POSITION TIME  SKY/WX   TEMP    WIND        PRES    VSBY  WAVE   SWELL
                                AIR SEA DIR/SP/G                  HT/PER HT/PER
                 (UTC)          (F)     (DEG/KT/KT) (MB)    (MI)  (FT/S) (FT/S)
PORT ARANSAS     1100            72 73  130/ 16/ 18 1007.9F
BUOY 90 E PORT A 1050            74 72  140/ 14/ 16 1009.6F         5/ 7   3/ 7
BUOY 45 SE BAFFI 1050            73     150/ 16/ 17 1007.5F         5/ 7   3/ 7
BUOY 200 E PT IS 1050            76 77  150/ 16/ 17 1011.2R         6/ 7   3/ 7
BUOY 15 E GALVES 1050            73 73  160/  8/ 10 1011.4S         3/ 7   3/ 7
$$



USA.gov is the U.S. government's official web portal to all federal, state and local government web resources and services.